Find Starlink 2180

NORAD ID: 47762 Int'l Des: 2021-017 Owner: SPXS Country: US Constellation: starlink operational
LEOCIRCULAR

Live Position

Loading 3D Globe...

About Starlink 2180

Description loading...

Upcoming Passes

Passes for default location (London). Set your location on the main map for personalized predictions.

Altitude History

Loading altitude history...

Two-Line Element Set

1 47762U 21017AS 26106.91968234 .00071112 00000-0 90277-3 0 9994
2 47762 53.1611 35.2015 0003023 143.6203 216.5016 15.58795807283591
Epoch: Apr 16, 2026 • Age: 5 hours

Current Status

Altitude 393.2 km
Velocity 7.68 km/s
Sub-Earth Point 29.24°N, 170.9°E
Launch Date Mar 4, 2021
Age 5.1 years
Type internet

Technical Details

Classification Payload
Mass 260.00 kg
Dry Mass 248.00 kg
Total Mass 260.00 kg
Length 0.20 m
Diameter 2.80 m
Span 9.00 m
Shape Box + pan
Manufacturer SPXS
Bus Type Starlink
Phase Status In Orbit
Owner/State SPXS/US

Most Searched